User: anonymous   Login
Location: Unspecified
(43.4680°N, 87.1740°E)
Time: 02:34:39
(UTC+00:00)
Language:

USA 215 - Orbit

View from above orbital plane
View from above orbital plane
View from above satellite
View from above satellite

Ground track
Ground track

The orbit data is extracted from the following two-line orbital elements,

1 37162U 10046A   21161.02345281 0.00000000  00000-0  00000-0 0    09
2 37162 123.0035   7.1769 0003924  68.3502 291.6497 13.41426579    07
Epoch (UTC): 10 June 2021 00:33:46
Eccentricity: 0.0003924
inclination: 123.0035°
perigee height: 1101 km
apogee height: 1107 km
right ascension of ascending node: 7.1769°
argument of perigee: 68.3502°
revolutions per day: 13.41426579
mean anomaly at epoch: 291.6497°
orbit number at epoch: 0

The dashed part of the orbit path shows where the satellite is in the earth's shadow,  

DLR